EHI
7 16 31 37 23 6 0 0 0 0 0 0 0 0 0 0 0 0 0 0 1 1 1 1 1 0 0 0 0 0 0 0 0 0 0 0 0 0 0 0 0 0 0 1 2 4 4 3 1
8 18 31 28 13 3 0 0 0 0 0 0 0 0 0 0 0 0 0 0 0 1 1 2 2 1 1 0 0 0 0 0 0 0 0 0 0 1 1 0 0 0 0 0 1 3 3 2 1
14 22 26 16 4 0 0 0 0 0 0 0 0 0 0 0 0 0 0 0 0 1 2 4 4 3 2 1 0 0 0 0 0 0 0 1 1 1 1 0 0 0 0 0 1 2 2 1 0
26 27 19 7 1 0 0 0 0 0 0 0 0 0 0 0 0 0 0 0 0 2 4 5 5 4 2 1 0 0 0 0 0 0 0 0 0 1 1 0 0 0 0 0 0 1 2 1 0
33 24 11 2 0 0 0 0 0 0 0 0 0 0 0 0 0 0 0 0 0 2 6 8 7 5 3 1 0 0 0 0 0 0 0 0 0 0 0 0 0 0 0 0 0 1 1 1 0
25 14 3 0 0 0 0 0 0 0 0 0 0 0 0 0 0 0 0 0 0 2 6 8 8 6 4 2 1 0 0 0 0 0 0 0 0 0 0 0 0 0 0 0 1 1 1 1 1
13 6 1 0 0 0 0 0 0 0 0 0 0 0 0 0 0 0 0 1 0 1 3 4 4 5 4 3 1 0 0 0 0 0 0 0 0 1 1 1 1 1 1 1 2 2 2 2 2
3 2 0 0 0 0 0 0 0 0 0 0 0 0 0 0 0 0 0 1 1 0 0 1 1 3 4 3 2 1 1 1 1 0 1 1 1 2 2 2 2 2 2 3 3 4 3 3 3
0 0 0 0 0 0 0 0 0 0 0 0 0 0 0 0 0 0 0 1 2 1 0 0 0 1 3 3 3 2 2 2 1 1 2 2 2 2 2 3 4 4 3 3 4 4 4 3 3
0 0 0 0 0 0 0 0 0 0 0 0 0 0 0 1 1 1 1 2 3 2 1 0 0 0 2 3 3 3 3 3 2 2 3 4 3 2 2 3 5 4 4 3 4 4 4 3 3
0 0 0 0 0 0 0 0 0 0 0 0 0 0 1 2 3 2 1 2 3 2 1 0 0 1 3 3 2 4 3 2 2 2 4 4 3 2 2 2 4 4 4 4 4 4 3 3 3
0 0 0 0 0 0 0 0 0 1 1 1 1 1 2 3 3 2 1 2 3 1 1 1 2 4 6 5 3 3 2 1 1 2 3 3 3 3 3 3 3 3 4 3 3 3 3 3 4
0 0 0 0 0 0 0 0 0 1 2 2 2 2 3 3 2 2 1 2 3 2 2 4 5 6 6 7 6 3 1 1 2 2 2 2 3 3 3 3 3 3 3 3 3 3 3 4 5
0 0 0 0 0 0 0 0 1 2 3 3 3 3 3 3 3 2 2 3 4 4 5 6 6 5 5 6 7 4 2 2 2 2 1 1 3 3 3 3 3 3 3 4 4 3 3 4 4
0 0 0 0 0 0 0 1 2 3 3 4 3 3 3 3 3 2 3 4 6 7 7 5 4 5 4 5 5 3 1 1 2 2 1 1 2 3 3 3 3 3 4 5 4 2 1 2 2
0 0 0 0 0 0 1 2 2 2 3 4 3 3 3 3 2 1 3 7 10 12 10 5 3 4 5 4 4 3 2 1 3 3 2 2 1 2 3 3 3 4 4 4 2 1 1 1 2
0 0 0 0 0 0 1 2 2 2 2 4 5 4 3 2 1 0 2 8 14 18 16 9 3 4 6 5 4 4 3 3 4 3 4 5 3 2 3 3 3 4 2 1 1 1 1 2 3
0 0 0 0 0 0 1 2 2 1 1 4 7 8 7 5 3 2 3 8 18 24 23 15 9 6 5 5 5 6 6 5 4 3 5 6 5 4 4 3 3 3 1 0 0 0 1 2 3
0 0 0 0 0 1 2 3 3 2 2 4 7 11 12 10 9 8 8 12 22 31 31 24 18 13 7 4 5 7 7 5 5 5 7 8 7 6 6 5 4 3 3 2 1 1 1 2 3
0 0 0 0 0 2 3 4 4 3 3 3 6 11 13 14 17 18 17 20 30 38 38 31 26 20 12 5 5 7 7 5 5 9 12 12 10 9 8 7 6 5 6 7 7 5 5 5 4
0 0 0 0 0 1 2 3 3 4 4 3 5 10 12 15 23 26 24 26 35 43 40 33 30 26 17 10 7 7 8 7 7 13 18 17 15 13 10 9 9 8 9 11 13 12 11 9 7
0 0 0 0 0 0 1 2 4 5 4 2 4 8 10 15 24 29 29 30 36 40 37 35 34 31 23 14 8 8 11 10 9 13 20 20 18 15 13 11 11 11 10 12 15 17 16 13 10
0 0 0 0 0 0 0 1 5 6 4 3 4 7 10 15 23 30 32 33 33 33 34 37 38 34 27 19 12 10 11 10 9 14 20 20 18 17 16 15 15 14 12 14 16 19 19 16 12
0 0 0 0 0 0 0 1 4 5 4 5 6 7 11 15 21 29 35 35 31 30 34 40 42 39 31 23 17 14 13 10 10 15 19 19 19 22 24 24 23 19 17 18 19 20 20 18 16
0 0 0 0 0 0 0 1 2 3 3 5 8 8 11 16 22 32 40 39 35 33 37 45 48 44 37 28 22 20 18 13 11 13 16 16 19 25 30 32 30 25 21 20 21 20 20 18 17
0 0 0 0 0 0 1 3 3 2 3 4 8 9 12 17 24 34 41 42 40 38 42 49 52 48 41 33 27 25 23 16 11 12 12 12 15 22 30 34 32 28 23 22 22 20 18 17 17
0 0 0 0 0 0 2 4 5 4 4 6 9 13 15 19 26 32 36 38 39 40 45 51 53 49 43 38 32 28 25 18 15 18 18 15 15 20 28 33 34 30 25 25 24 20 17 17 18
0 0 0 0 0 0 2 3 4 5 7 9 13 16 19 24 28 30 31 33 35 39 42 47 51 50 46 42 36 31 28 24 23 26 27 25 24 25 30 36 36 32 27 26 25 22 18 19 20
0 0 0 0 0 0 1 3 4 5 9 11 15 20 24 28 32 33 30 31 34 36 38 42 47 48 46 44 40 36 34 32 30 31 33 33 32 33 36 38 37 34 30 28 26 22 20 21 22
0 0 0 0 0 0 1 2 4 6 9 12 16 22 27 31 34 35 33 33 34 34 35 40 43 46 46 44 42 41 39 37 34 33 35 36 36 38 39 39 36 34 33 31 26 21 20 22 24
Wind_Speed
9 10 9 6 4 3 13 12 12 12 12 12 12 12 16 14 10 11 8 10 12 13 12 10 10 10 10 10 10 10 11 11 12 12 12 12 13 13 14 15 15 16 16 16 17 16 17 17 16
9 12 9 5 0 8 12 12 12 11 10 10 13 15 16 16 15 12 10 10 12 13 11 10 10 10 10 9 9 10 10 11 12 12 12 12 13 13 15 15 16 16 16 16 16 16 16 16 15
11 13 8 2 7 11 12 11 10 10 10 12 14 15 13 12 13 10 10 11 12 12 12 10 11 11 10 10 10 10 10 11 12 12 12 12 13 13 15 16 16 16 16 16 16 16 15 14 14
8 7 5 4 14 14 12 10 9 11 11 11 12 12 13 12 12 12 11 11 12 12 12 11 11 10 10 10 10 10 10 11 11 12 12 12 12 13 14 15 15 15 15 15 15 15 14 14 13
8 6 3 10 14 13 11 10 10 11 12 14 16 15 14 13 13 12 10 11 11 12 13 12 11 10 10 10 10 10 10 11 11 12 11 12 12 13 14 14 14 14 14 14 14 13 13 13 11
6 3 4 10 13 12 11 11 11 12 12 14 16 16 13 11 11 10 10 10 11 12 13 12 11 11 10 9 10 10 10 11 11 11 11 11 12 12 13 13 13 13 13 13 12 12 12 11 9
6 3 9 12 11 11 10 10 10 10 10 12 14 14 12 11 10 10 9 9 10 11 11 11 10 9 10 10 9 10 10 10 11 11 11 11 11 12 13 12 12 12 12 12 11 11 10 9 8
3 3 8 10 11 11 10 11 11 11 10 9 9 11 11 11 11 10 9 9 9 9 9 9 10 9 8 8 10 11 10 10 10 10 10 10 10 11 12 12 11 11 11 11 10 10 9 8 7
1 4 7 10 10 10 11 12 11 11 10 10 12 15 14 13 12 10 9 8 7 7 6 7 8 7 8 9 10 10 10 9 9 7 8 7 5 6 7 11 12 11 10 10 9 9 8 7 6
5 7 11 11 11 11 11 11 10 11 11 13 14 14 14 12 11 9 8 8 7 6 7 6 6 5 5 7 7 6 6 6 5 4 5 3 3 5 8 11 12 11 10 9 8 8 7 5 4
8 9 10 12 12 11 11 10 9 11 11 13 13 13 12 12 10 9 9 8 7 5 6 7 7 5 4 4 4 3 4 4 5 5 4 3 4 5 5 5 6 6 7 5 6 6 4 4 3
8 8 9 11 11 10 10 11 11 11 12 13 13 13 11 10 9 9 8 8 7 5 6 7 7 5 4 3 3 3 3 3 3 5 4 3 2 2 3 3 4 4 3 3 3 2 2 2 2
6 8 9 10 10 11 11 11 12 13 13 14 13 12 11 9 9 9 9 8 7 6 6 7 7 5 4 3 1 3 3 3 5 4 3 3 3 2 3 2 2 3 3 3 2 2 2 2 1
5 6 7 9 10 9 9 10 11 13 13 13 12 11 10 10 9 9 8 7 7 6 6 6 6 6 4 3 2 2 3 3 4 3 4 3 3 3 3 2 1 2 3 3 3 3 2 1 1
5 5 4 6 9 9 9 8 11 14 13 12 12 10 10 10 9 9 8 7 7 6 6 5 6 6 4 3 2 3 2 3 3 3 4 3 3 3 3 2 2 2 2 3 2 3 2 2 2
3 3 4 5 6 8 6 6 11 13 12 11 11 11 10 9 9 9 9 7 7 7 6 3 5 7 5 3 1 2 2 3 3 3 4 4 3 3 2 2 2 1 1 2 2 2 2 1 2
5 4 4 5 6 8 7 8 11 13 12 11 10 11 11 10 9 9 9 8 8 7 5 4 4 6 5 4 2 2 2 2 2 3 3 3 4 3 2 2 2 2 1 1 2 3 2 1 2
5 4 6 4 5 6 7 9 12 12 11 12 11 11 11 11 10 10 9 10 8 8 6 5 4 5 4 3 2 2 2 2 2 3 2 3 3 3 2 2 2 2 2 1 1 2 1 1 1
5 5 2 3 5 5 6 8 10 11 10 11 11 11 11 11 12 11 10 10 9 8 7 5 5 4 3 2 2 2 2 2 2 3 3 3 3 3 1 1 2 1 1 1 1 2 2 1 2
8 7 5 3 3 3 4 6 7 10 10 10 11 11 12 12 12 11 10 10 10 9 7 6 5 5 3 3 2 2 2 2 3 2 3 4 3 3 3 2 2 2 2 2 1 1 1 1 1
10 7 5 4 2 3 3 2 3 5 7 10 10 11 13 14 14 12 11 10 10 10 9 7 6 5 4 3 3 2 2 1 2 3 3 3 4 4 2 3 2 1 2 2 2 2 2 1 1
8 6 6 7 5 5 4 2 5 6 7 11 11 11 13 14 15 14 12 11 10 10 9 8 7 5 4 4 3 4 4 3 3 3 3 4 4 4 3 3 2 1 1 2 2 2 2 2 2
9 7 6 7 8 8 6 3 6 8 9 11 12 12 12 14 15 14 13 11 11 11 10 9 7 5 5 4 4 3 3 3 3 3 4 4 3 3 3 3 2 2 1 1 1 1 1 2 2
10 8 7 8 8 9 7 5 5 7 7 10 11 11 12 13 14 14 13 12 11 11 10 10 8 6 5 5 4 3 2 1 2 3 4 3 3 3 4 4 3 2 2 2 2 2 2 2 2
12 10 7 6 6 8 7 4 4 8 7 8 11 11 12 13 13 14 13 12 11 11 11 10 9 7 6 6 4 4 3 2 2 3 3 3 3 3 3 3 3 2 2 2 2 2 2 2 2
12 11 8 8 7 6 3 4 2 7 7 8 9 11 13 13 13 14 13 12 11 11 10 10 10 8 8 6 5 4 4 3 3 3 3 3 2 2 4 4 3 3 2 2 2 2 3 2 2
14 11 11 10 9 8 4 2 3 2 5 9 10 11 12 13 14 14 14 13 12 11 10 10 9 8 7 7 6 5 5 4 3 4 4 2 2 3 5 4 3 3 2 2 2 1 1 1 2
15 12 7 9 8 8 6 5 4 2 4 7 9 10 10 11 12 13 13 13 12 11 10 9 10 8 7 7 6 6 5 5 4 3 4 2 2 2 4 4 4 3 3 2 2 2 2 2 2
12 14 11 8 8 7 6 4 5 5 4 5 7 9 10 10 10 10 11 12 12 11 11 10 9 8 7 7 6 5 5 5 5 4 3 4 3 3 3 3 3 3 3 3 3 3 3 3 3
13 15 13 10 8 8 7 2 3 4 3 5 6 7 8 9 9 9 10 10 10 11 11 10 10 10 8 7 6 5 5 5 5 5 4 4 4 4 4 4 4 4 4 3 3 4 3 3 3
Wind_Direction
197 215 220 237 249 79 67 64 61 63 63 59 61 65 61 59 67 89 105 97 100 100 98 90 83 81 79 79 81 82 82 82 83 83 86 90 93 97 102 102 104 105 106 109 113 115 120 121 122
227 224 227 244 295 73 70 67 64 63 74 76 71 72 72 69 81 97 101 100 99 99 97 92 90 87 82 82 87 86 85 86 87 86 87 90 91 99 105 105 105 104 105 105 110 116 121 124 125
250 253 255 226 65 71 72 72 76 74 75 83 77 65 64 77 85 97 107 108 102 101 101 99 98 94 86 84 90 89 87 88 91 91 89 91 94 98 104 106 106 105 105 105 107 116 121 125 126
246 239 234 76 73 72 76 80 85 86 81 79 84 78 72 78 93 104 113 111 109 109 106 103 102 99 94 91 94 92 92 94 97 95 92 93 94 97 105 106 107 107 107 107 107 109 113 120 124
236 259 96 80 80 82 80 80 82 83 83 82 85 91 88 88 100 110 115 114 111 108 107 109 109 106 103 100 100 98 97 98 99 98 97 97 95 97 103 107 108 109 108 108 109 109 112 117 123
255 221 95 87 85 83 82 83 85 85 92 98 100 100 99 108 109 110 107 103 103 104 109 117 118 115 111 108 108 106 104 103 102 100 102 103 102 104 109 109 112 112 109 110 111 110 114 121 131
269 10 83 93 94 89 86 87 87 87 85 93 107 108 114 117 119 113 104 104 105 107 115 127 129 125 120 118 120 118 114 110 110 107 106 108 108 110 115 115 115 115 114 114 117 120 124 133 140
263 53 79 93 99 97 99 89 86 87 79 87 108 111 120 124 120 113 109 103 105 107 112 125 130 133 132 126 129 128 124 122 120 118 118 121 121 119 123 122 119 121 121 123 124 128 135 143 153
23 76 78 90 98 103 106 100 99 98 95 84 83 102 118 125 120 120 113 104 98 100 108 112 119 128 135 133 132 137 133 132 133 131 133 135 135 130 127 122 128 128 130 133 134 137 144 154 168
77 77 77 86 99 107 105 111 115 110 102 94 94 107 123 128 130 126 117 113 107 105 110 109 112 117 126 125 137 144 135 137 145 137 146 144 132 125 121 127 134 137 141 146 152 156 162 174 182
78 84 86 94 101 105 109 109 111 109 110 114 120 125 129 129 131 127 121 116 110 111 104 105 102 104 103 113 138 127 126 136 142 133 134 131 121 129 131 140 144 148 155 162 160 176 187 183 178
87 89 94 97 104 106 104 103 96 93 104 118 127 132 130 133 127 119 116 113 111 103 100 100 101 91 81 85 108 122 125 126 122 129 136 121 117 125 134 139 146 153 157 158 168 183 171 154 158
102 108 109 111 113 106 106 103 102 102 109 119 127 132 134 132 124 118 113 113 117 113 102 97 97 96 91 80 74 106 106 118 119 119 124 124 130 126 125 123 135 149 154 158 165 160 140 141 162
102 104 114 121 116 119 115 115 117 117 120 125 129 133 135 130 128 125 121 121 123 119 111 111 111 108 106 107 88 102 119 114 116 121 128 133 124 121 121 134 149 165 156 152 152 145 140 159 136
132 134 138 144 139 133 124 126 123 129 132 135 136 136 137 136 133 131 129 128 125 120 115 124 126 117 121 123 142 128 125 128 122 124 129 134 126 131 142 149 172 157 139 137 141 133 145 166 153
196 173 174 169 150 135 134 131 134 141 144 143 144 144 142 139 140 139 137 131 128 125 123 132 127 126 126 118 113 106 113 114 124 131 135 142 133 145 158 153 153 155 159 148 140 147 149 164 151
238 190 205 182 166 151 148 143 151 155 153 149 152 150 148 147 146 143 143 139 134 128 129 126 105 122 133 139 133 122 110 117 123 117 124 138 146 154 162 145 136 164 160 151 170 137 147 152 145
248 228 197 187 173 159 151 146 154 163 161 157 159 155 154 155 152 148 147 141 138 135 135 134 130 123 137 142 137 135 135 131 128 122 126 134 143 144 159 143 157 179 153 144 121 123 139 152 173
243 274 235 190 183 174 157 152 159 164 169 163 162 160 160 157 152 152 153 147 145 143 143 147 147 139 147 146 157 163 160 153 145 146 148 149 151 148 156 138 147 177 136 138 155 151 167 182 175
237 249 253 230 186 188 169 164 162 169 173 167 165 164 161 159 155 155 159 155 153 151 152 155 156 154 166 154 162 173 157 156 147 144 149 161 155 157 164 158 172 175 151 157 172 162 161 212 183
244 233 244 241 221 238 221 174 177 171 176 169 171 169 167 164 161 162 167 164 158 157 161 167 163 162 172 165 174 160 147 163 144 150 153 166 166 164 171 162 176 177 171 164 177 188 186 200 227
247 250 248 252 252 253 229 181 195 194 199 179 178 174 170 166 164 167 169 168 164 162 164 158 159 161 167 179 187 179 175 180 160 158 156 164 168 168 171 158 163 183 175 154 195 171 195 192 224
252 254 267 272 269 261 235 224 189 181 211 185 176 175 172 168 165 167 167 168 167 164 162 158 157 163 170 183 188 199 185 176 155 151 154 164 166 170 165 154 160 169 181 176 201 140 211 215 225
253 259 270 273 273 269 254 244 176 177 195 175 172 172 169 165 162 163 163 163 167 166 164 162 160 166 173 186 187 191 199 188 150 157 161 180 169 171 171 161 163 174 185 184 193 201 203 221 234
239 244 248 253 250 262 275 266 166 167 185 176 163 168 163 161 159 158 159 164 167 168 166 162 159 165 174 183 183 183 188 189 178 183 179 193 174 167 166 161 161 180 185 190 188 191 216 216 218
239 240 240 253 257 261 253 264 196 157 167 154 153 162 159 160 159 159 162 161 165 166 162 158 162 168 174 178 177 176 183 194 193 205 201 193 190 158 152 161 171 191 197 194 183 198 206 203 219
243 242 246 254 259 269 257 257 259 169 152 148 151 154 159 162 160 162 164 166 169 168 163 160 160 167 174 175 169 179 192 204 198 185 202 204 185 172 158 169 175 184 200 200 173 203 224 197 217
240 248 247 256 258 258 248 223 224 218 186 160 155 158 160 160 163 164 165 167 167 165 161 160 159 165 169 172 180 182 191 197 198 197 190 190 187 173 162 181 180 181 189 199 197 202 200 206 214
231 242 247 257 262 265 252 216 190 200 207 175 166 162 161 158 155 157 162 164 162 163 164 163 160 166 173 177 185 180 180 190 196 201 189 185 188 179 184 194 189 189 198 203 210 220 205 205 210
238 241 244 246 247 256 267 233 184 192 204 182 166 150 149 145 148 155 157 157 160 165 168 168 170 176 180 179 180 181 181 187 196 196 189 186 186 190 194 193 201 206 203 205 213 229 224 211 212